Stündliche Wetter Jucás

Heute, 7 März, Sonntag

Zeit Temperatur Niederschläge Wind Luftdruck Luftfeuchtigkeit
00:00 +25°C° 0 mm 1 m/S 732 mmHg 82%
01:00 +24°C° 0 mm 1 m/S 732 mmHg 87%
02:00 +24°C° 0 mm 1 m/S 732 mmHg 91%
03:00 +21°C° 0 mm 0 m/S 732 mmHg 94%
04:00 +21°C° 0 mm 0 m/S 733 mmHg 95%
05:00 +21°C° 0 mm 0 m/S 733 mmHg 97%
06:00 +20°C° 0 mm 0 m/S 733 mmHg 98%
07:00 +25°C° 0 mm 1 m/S 734 mmHg 88%
08:00 +27°C° 0 mm 1 m/S 734 mmHg 78%
09:00 +29°C° 0 mm 2 m/S 735 mmHg 69%
10:00 +31°C° 0 mm 2 m/S 734 mmHg 63%
11:00 +32°C° 0 mm 2 m/S 734 mmHg 56%
12:00 +35°C° 0 mm 2 m/S 734 mmHg 50%
13:00 +35°C° 0 mm 2 m/S 733 mmHg 47%
14:00 +35°C° 0 mm 2 m/S 732 mmHg 44%
15:00 +36°C° 0 mm 2 m/S 731 mmHg 42%
16:00 +34°C° 0 mm 2 m/S 731 mmHg 48%
17:00 +31°C° 0 mm 1 m/S 731 mmHg 55%
18:00 +28°C° 0 mm 1 m/S 731 mmHg 61%
19:00 +28°C° 0 mm 1 m/S 731 mmHg 63%
20:00 +25°C° 0 mm 0 m/S 732 mmHg 64%
21:00 +24°C° 0 mm 0 m/S 732 mmHg 65%
22:00 +25°C° 0 mm 1 m/S 732 mmHg 71%
23:00 +25°C° 0 mm 1 m/S 732 mmHg 77%

Morgen, 8 März, Montag

Zeit Temperatur Niederschläge Wind Luftdruck Luftfeuchtigkeit
00:00 +24°C° 0 mm 2 m/S 732 mmHg 83%
01:00 +24°C° 0 mm 1 m/S 732 mmHg 87%
02:00 +23°C° 0 mm 1 m/S 732 mmHg 92%
03:00 +21°C° 0 mm 0 m/S 732 mmHg 96%
04:00 +21°C° 0 mm 0 m/S 732 mmHg 97%
05:00 +21°C° 0 mm 0 m/S 733 mmHg 98%
06:00 +21°C° 0 mm 0 m/S 733 mmHg 98%
07:00 +25°C° 0 mm 1 m/S 733 mmHg 88%
08:00 +27°C° 0 mm 1 m/S 734 mmHg 79%
09:00 +29°C° 0 mm 2 m/S 734 mmHg 69%
10:00 +31°C° 0 mm 2 m/S 734 mmHg 62%
11:00 +32°C° 0 mm 2 m/S 733 mmHg 54%
12:00 +35°C° 0 mm 3 m/S 733 mmHg 47%
13:00 +35°C° 0 mm 3 m/S 732 mmHg 45%
14:00 +35°C° 0 mm 3 m/S 731 mmHg 42%
15:00 +36°C° 0 mm 3 m/S 731 mmHg 40%
16:00 +34°C° 0 mm 2 m/S 730 mmHg 46%
17:00 +31°C° 0 mm 1 m/S 730 mmHg 52%
18:00 +28°C° 0 mm 1 m/S 730 mmHg 58%
19:00 +28°C° 0 mm 1 m/S 730 mmHg 59%
20:00 +27°C° 0 mm 1 m/S 731 mmHg 61%
21:00 +26°C° 0 mm 1 m/S 732 mmHg 62%
22:00 +25°C° 0 mm 1 m/S 732 mmHg 71%
23:00 +24°C° 0 mm 1 m/S 732 mmHg 80%

übermorgen, 9 März, Dienstag

Zeit Temperatur Niederschläge Wind Luftdruck Luftfeuchtigkeit
00:00 +24°C° 0 mm 1 m/S 732 mmHg 89%
01:00 +23°C° 0 mm 1 m/S 732 mmHg 92%
02:00 +23°C° 0 mm 1 m/S 732 mmHg 95%
03:00 +21°C° 0 mm 0 m/S 732 mmHg 98%
04:00 +21°C° 0 mm 0 m/S 732 mmHg 98%
05:00 +21°C° 0 mm 0 m/S 732 mmHg 98%
06:00 +21°C° 0 mm 0 m/S 732 mmHg 98%
07:00 +23°C° 0 mm 0 m/S 732 mmHg 87%
08:00 +27°C° 0 mm 1 m/S 733 mmHg 77%
09:00 +30°C° 0 mm 1 m/S 734 mmHg 66%
10:00 +31°C° 0 mm 2 m/S 733 mmHg 59%
11:00 +34°C° 0 mm 2 m/S 733 mmHg 51%
12:00 +35°C° 0 mm 2 m/S 732 mmHg 44%
13:00 +35°C° 0 mm 2 m/S 731 mmHg 42%
14:00 +36°C° 0 mm 2 m/S 730 mmHg 40%
15:00 +36°C° 0 mm 2 m/S 730 mmHg 38%
16:00 +34°C° 0 mm 2 m/S 729 mmHg 44%
17:00 +31°C° 0 mm 1 m/S 729 mmHg 50%
18:00 +28°C° 0 mm 1 m/S 729 mmHg 57%
19:00 +28°C° 0 mm 1 m/S 730 mmHg 59%
20:00 +27°C° 0 mm 1 m/S 730 mmHg 61%
21:00 +26°C° 0 mm 1 m/S 731 mmHg 63%
22:00 +25°C° 0 mm 1 m/S 731 mmHg 73%
23:00 +25°C° 0 mm 1 m/S 731 mmHg 82%

10 März, Mittwoch

Zeit Temperatur Niederschläge Wind Luftdruck Luftfeuchtigkeit
00:00 +24°C° 0 mm 1 m/S 731 mmHg 92%
01:00 +24°C° 0 mm 1 m/S 731 mmHg 94%
02:00 +23°C° 0 mm 1 m/S 731 mmHg 96%
03:00 +21°C° 0 mm 0 m/S 731 mmHg 98%
04:00 +21°C° 0 mm 0 m/S 731 mmHg 98%
05:00 +21°C° 0 mm 0 m/S 732 mmHg 98%
06:00 +21°C° 0 mm 0 m/S 732 mmHg 99%
07:00 +25°C° 0 mm 1 m/S 732 mmHg 87%
08:00 +27°C° 0 mm 2 m/S 733 mmHg 76%
09:00 +29°C° 0 mm 2 m/S 733 mmHg 65%
10:00 +31°C° 0 mm 2 m/S 733 mmHg 58%
11:00 +34°C° 0 mm 2 m/S 732 mmHg 50%
12:00 +35°C° 0 mm 2 m/S 732 mmHg 43%
13:00 +36°C° 0 mm 2 m/S 731 mmHg 42%
14:00 +36°C° 0 mm 2 m/S 730 mmHg 40%
15:00 +36°C° 0 mm 2 m/S 729 mmHg 38%
16:00 +34°C° 0 mm 2 m/S 729 mmHg 45%
17:00 +31°C° 0 mm 1 m/S 729 mmHg 51%
18:00 +29°C° 0 mm 1 m/S 729 mmHg 58%
19:00 +28°C° 0.1 mm 1 m/S 730 mmHg 62%
20:00 +27°C° 0.1 mm 2 m/S 731 mmHg 66%
21:00 +26°C° 0.1 mm 2 m/S 731 mmHg 71%
22:00 +25°C° 0.4 mm 2 m/S 731 mmHg 79%
23:00 +25°C° 0.4 mm 1 m/S 732 mmHg 88%

11 März, Donnerstag

Zeit Temperatur Niederschläge Wind Luftdruck Luftfeuchtigkeit
00:00 +24°C° 0.4 mm 1 m/S 732 mmHg 96%
01:00 +24°C° 0.4 mm 1 m/S 732 mmHg 96%
02:00 +24°C° 0.4 mm 1 m/S 732 mmHg 96%
03:00 +24°C° 0.4 mm 1 m/S 732 mmHg 95%
04:00 +24°C° 0 mm 1 m/S 732 mmHg 96%
05:00 +21°C° 0 mm 0 m/S 732 mmHg 97%
06:00 +21°C° 0 mm 0 m/S 733 mmHg 98%
07:00 +25°C° 0 mm 1 m/S 733 mmHg 89%
08:00 +27°C° 0 mm 1 m/S 734 mmHg 79%
09:00 +29°C° 0 mm 2 m/S 734 mmHg 69%
10:00 +31°C° 0 mm 2 m/S 734 mmHg 62%
11:00 +32°C° 0 mm 2 m/S 733 mmHg 54%
12:00 +35°C° 0 mm 3 m/S 733 mmHg 46%
13:00 +35°C° 0 mm 3 m/S 732 mmHg 45%
14:00 +35°C° 0 mm 3 m/S 731 mmHg 43%
15:00 +36°C° 0 mm 2 m/S 730 mmHg 42%
16:00 +34°C° 0 mm 2 m/S 730 mmHg 47%
17:00 +31°C° 0 mm 1 m/S 730 mmHg 53%
18:00 +27°C° 0 mm 0 m/S 730 mmHg 59%
19:00 +29°C° 0 mm 1 m/S 731 mmHg 61%
20:00 +28°C° 0 mm 1 m/S 731 mmHg 62%
21:00 +27°C° 0 mm 1 m/S 731 mmHg 64%
22:00 +26°C° 0.1 mm 1 m/S 732 mmHg 72%
23:00 +25°C° 0.1 mm 1 m/S 732 mmHg 81%

12 März, Freitag

Zeit Temperatur Niederschläge Wind Luftdruck Luftfeuchtigkeit
00:00 +24°C° 0.1 mm 1 m/S 732 mmHg 89%
01:00 +24°C° 0.2 mm 1 m/S 732 mmHg 91%
02:00 +23°C° 0.2 mm 1 m/S 732 mmHg 94%
03:00 +23°C° 0.2 mm 1 m/S 732 mmHg 96%
04:00 +23°C° 0 mm 1 m/S 732 mmHg 97%
05:00 +21°C° 0 mm 0 m/S 732 mmHg 97%
06:00 +21°C° 0 mm 0 m/S 733 mmHg 98%
07:00 +25°C° 0 mm 1 m/S 733 mmHg 88%
08:00 +27°C° 0 mm 1 m/S 733 mmHg 78%
09:00 +29°C° 0 mm 2 m/S 734 mmHg 68%
10:00 +31°C° 0 mm 2 m/S 733 mmHg 60%
11:00 +32°C° 0 mm 2 m/S 733 mmHg 52%
12:00 +35°C° 0 mm 2 m/S 733 mmHg 44%
13:00 +35°C° 0 mm 2 m/S 732 mmHg 43%
14:00 +35°C° 0 mm 2 m/S 731 mmHg 42%
15:00 +35°C° 0 mm 2 m/S 730 mmHg 41%
16:00 +32°C° 0 mm 2 m/S 730 mmHg 47%
17:00 +30°C° 0 mm 1 m/S 730 mmHg 53%
18:00 +28°C° 0 mm 1 m/S 730 mmHg 59%
19:00 +27°C° 0 mm 1 m/S 731 mmHg 62%
20:00 +27°C° 0 mm 1 m/S 731 mmHg 64%
21:00 +26°C° 0 mm 1 m/S 731 mmHg 66%
22:00 +25°C° 0 mm 1 m/S 732 mmHg 73%
23:00 +24°C° 0 mm 1 m/S 732 mmHg 81%
Mehr zeigen

Wir brauchen deine Erlaubnis

Meteoprog und unser Service Anbieter werden persönliche Daten aufbewahren, so wie Cookies, Geräte Bezeichnung oder ähnliche Technologien von deinem Gerät und Prozess, so wie Persönliche Daten Inhalte und Werbungen, genauso wie social Media und den Verkehr zu analysieren.

  • Aufbewahrung und/oder Zugang zu deiner Geräte Informationen.

    Cookies, Geräte Bezeichnung oder andere Informationen, können aufbewahrt oder Zugang zu deinem Gerät erhalten, für den Grund, der oben angegeben wird.

  • Personalisierte Werbung und Inhalte, Messungen, Einblick in das Publikum und Produkt Entwicklung.

    Werbungen und Inhalte können personalisiert werden, basierend auf ein Profil. Mehr Daten können besser personalisierte Werbungen und Inhalte hinzufügen. Werbung und Inhalte können gezeigt und gemessen werden. Einblicke über das Publikum, welche die Werbung gesehen haben und den Inhalt, können abgeleitet werden. So wie Daten können genutzt werden, um es zu verbessern oder die Benutzer Erfahrung zu verbessern das System und die Software.

Wenn du “Ich stimme zu” klickst, erlaubst du uns, die Cookies zu benutzen die Geräte Bezeichnung, den Web oder ähnliche Technologien zu benutzen. Deine Settings, können in deinem Gerät bei deinem Browser geändert werden.

Für den bestimmten Zweck, berechtigten Interessen beruhen darauf, mehr als auf den Inhalt. Du kannst mehr darüber in unseren Privaten und Cookie Politik lesen.